EW8486 Weather Reports


Display with metric or nautical units.
time (UTC)temp
F
wind
direction
speed
MPH
gust
MPH
rain 1hr
in
rain 24hr
in
rain mn
in
humidity
%
barometer
mb
20260902005037 75 0.0 2.0 0.00 0.00 0.00 54 1003.1
20260902003517 75 0.0 0.0 0.00 0.00 0.00 51 1003.2
20260902002016 75 0.0 0.0 0.00 0.00 0.00 53 1003.3
20260902000516 75 180 1.0 2.0 0.00 0.00 0.00 51 1003.5
20260901235036 74 0.0 2.0 0.00 0.00 0.00 52 1003.4
20260901233516 75 180 1.0 3.0 0.00 0.00 0.00 52 1003.3
20260901232016 76 158 2.0 4.0 0.00 0.00 0.00 54 1003.6
20260901230516 77 158 1.0 3.0 0.00 0.00 0.00 46 1003.9
20260901225056 78 158 2.0 4.0 0.00 0.00 0.00 40 1004.1
20260901223516 78 0.0 3.0 0.00 0.00 0.00 41 1004.2
20260901222016 77 158 1.0 4.0 0.00 0.00 0.00 48 1004.5
20260901220536 74 180 2.0 4.0 0.00 0.00 0.00 54 1004.7
20260901215016 74 180 1.0 2.0 0.00 0.00 0.00 53 1004.8
20260901213516 75 180 2.0 4.0 0.00 0.00 0.00 51 1005.1
20260901212016 74 180 1.0 2.0 0.00 0.00 0.00 51 1005.6
20260901210556 74 180 1.0 2.0 0.00 0.00 0.00 54 1005.9
20260901205016 73 180 2.0 4.0 0.00 0.00 0.00 54 1006.2
20260901203516 73 158 2.0 3.0 0.00 0.00 0.00 56 1006.2
20260901202016 74 180 2.0 5.0 0.00 0.00 0.00 57 1006.4
20260901200516 73 158 3.0 5.0 0.00 0.00 0.00 57 1006.5
20260901195016 75 90 2.0 3.0 0.00 0.00 0.00 51 1006.9
20260901193516 74 113 2.0 3.0 0.00 0.00 0.00 53 1007.1
20260901192016 73 135 3.0 5.0 0.00 0.00 0.00 53 1007.4
20260901190536 73 135 3.0 4.0 0.00 0.00 0.00 54 1007.8
20260901185016 72 113 2.0 4.0 0.00 0.00 0.00 55 1008.2
20260901183516 72 90 2.0 6.0 0.00 0.00 0.00 57 1008.5
20260901182016 72 135 2.0 4.0 0.00 0.00 0.00 56 1008.8
20260901180516 71 90 1.0 3.0 0.00 0.00 0.00 56 1009.0
20260901175016 70 90 2.0 4.0 0.00 0.00 0.00 59 1009.0
20260901173536 69 113 2.0 6.0 0.00 0.00 0.00 61 1009.1
20260901172035 68 158 2.0 5.0 0.00 0.00 0.00 63 1009.4
20260901170516 67 135 2.0 4.0 0.00 0.00 0.00 64 1009.5
20260901165015 67 135 2.0 4.0 0.00 0.00 0.00 65 1009.6
20260901163516 66 90 1.0 3.0 0.00 0.00 0.00 65 1009.8
20260901162035 66 90 2.0 4.0 0.00 0.00 0.00 65 1009.8
20260901160535 66 45 1.0 4.0 0.00 0.00 0.00 62 1009.9
20260901155015 64 0.0 2.0 0.00 0.00 0.00 64 1010.1
20260901153556 63 45 3.0 5.0 0.00 0.00 0.00 65 1010.3
20260901152015 63 0.0 1.0 0.00 0.00 0.00 66 1010.4
20260901150515 61 23 3.0 5.0 0.00 0.00 0.00 66 1010.5
20260901145015 61 23 1.0 3.0 0.00 0.00 0.00 69 1010.7
20260901143515 60 0.0 1.0 0.00 0.00 0.00 73 1010.7
20260901142035 59 0.0 0.0 0.00 0.00 0.00 76 1010.7
20260901140515 58 0.0 0.0 0.00 0.00 0.00 76 1010.8
20260901135015 57 0.0 0.0 0.00 0.00 0.00 75 1010.8
20260901133515 58 0.0 1.0 0.00 0.00 0.00 73 1010.8
20260901132016 58 0.0 1.0 0.00 0.00 0.00 74 1010.7
20260901130517 57 0.0 0.0 0.00 0.00 0.00 75 1010.7
20260901125017 57 0.0 0.0 0.00 0.00 0.00 77 1010.7
20260901123517 56 0.0 1.0 0.00 0.00 0.00 76 1010.7
20260901122017 58 0.0 1.0 0.00 0.00 0.00 76 1010.6
20260901120517 57 0.0 0.0 0.00 0.00 0.00 75 1010.4
20260901115017 58 0.0 0.0 0.00 0.00 0.00 74 1010.5
20260901113517 58 0.0 0.0 0.00 0.00 0.00 74 1010.7
20260901112017 58 0.0 2.0 0.00 0.00 0.00 74 1010.5
20260901110517 58 0.0 0.0 0.00 0.00 0.00 73 1010.3
20260901105017 59 0.0 0.0 0.00 0.00 0.00 72 1010.4
20260901103517 58 0.0 0.0 0.00 0.00 0.00 73 1010.5
20260901102017 58 0.0 1.0 0.00 0.00 0.00 75 1010.3
20260901100517 58 0.0 0.0 0.00 0.00 0.00 73 1010.4
20260901095016 59 0.0 0.0 0.00 0.00 0.00 73 1010.5
20260901093516 59 0.0 1.0 0.00 0.00 0.00 71 1010.4
20260901092036 59 0.0 0.0 0.00 0.00 0.00 72 1010.5
20260901090517 59 0.0 1.0 0.00 0.00 0.00 71 1010.5
20260901085017 59 248 1.0 2.0 0.00 0.00 0.00 71 1010.5
20260901083516 60 0.0 0.0 0.00 0.00 0.00 70 1010.6
20260901082017 60 0.0 1.0 0.00 0.00 0.00 69 1010.5
20260901080516 60 0.0 1.0 0.00 0.00 0.00 70 1010.6
20260901075016 61 0.0 0.0 0.00 0.00 0.00 70 1010.6
20260901073536 61 0.0 2.0 0.00 0.00 0.00 69 1010.5
20260901072036 61 0.0 1.0 0.00 0.00 0.00 68 1010.5
20260901070536 61 248 1.0 2.0 0.00 0.00 0.00 68 1010.5
20260901065015 62 0.0 0.0 0.00 0.00 0.00 66 1010.4
20260901063555 62 0.0 0.0 0.00 0.00 0.00 67 1010.3
20260901062015 63 0.0 1.0 0.00 0.00 0.00 65 1010.4
20260901060535 63 0.0 2.0 0.00 0.00 0.00 65 1010.4
20260901055015 63 0.0 0.0 0.00 0.00 0.00 65 1010.3
20260901053515 64 0.0 0.0 0.00 0.00 0.00 62 1010.5
20260901052015 64 0.0 0.0 0.00 0.00 0.00 62 1010.4
20260901050517 67 248 1.0 3.0 0.00 0.00 0.00 57 1010.5
20260901045037 65 0.0 0.0 0.00 0.00 0.00 63 1010.3
20260901043517 65 0.0 0.0 0.00 0.00 0.00 60 1010.3
20260901042017 65 0.0 0.0 0.00 0.00 0.00 62 1010.3
20260901040517 66 0.0 1.0 0.00 0.00 0.00 61 1010.4
20260901035017 68 0.0 1.0 0.00 0.00 0.00 60 1010.2
20260901033517 67 0.0 2.0 0.00 0.00 0.00 61 1010.2
20260901032037 69 0.0 2.0 0.00 0.00 0.00 61 1010.1
20260901030517 68 0.0 1.0 0.00 0.00 0.00 60 1010.0
20260901025017 72 0.0 2.0 0.00 0.00 0.00 54 1010.0
20260901023517 70 0.0 1.0 0.00 0.00 0.00 56 1010.0
20260901022017 71 0.0 1.0 0.00 0.00 0.00 58 1010.0
20260901020517 73 0.0 1.0 0.00 0.00 0.00 55 1010.2
20260901015017 74 135 1.0 3.0 0.00 0.00 0.00 52 1010.2
20260901013517 76 0.0 2.0 0.00 0.00 0.00 47 1010.2
20260901012017 77 180 1.0 2.0 0.00 0.00 0.00 44 1010.4
20260901010517 75 180 1.0 2.0 0.00 0.00 0.00 44 1010.4